QPF
0.02 0.01 0.03 0.04 0.03 0.03 0.03 0.02 0.01 0.01 0.01 0.02 0.02 0.02 0.01 0.02 0.03 0.03 0.03 0.02 0.02 0.03 0.03 0.03 0.03 0.02 0.02 0.03 0.02 0.02 0.02 0.02 0.02 0.02 0.02 0.03 0.03 0.03 0.02 0.02 0.01 0.02 0.03
0.01 0.01 0.04 0.04 0.04 0.04 0.05 0.04 0.03 0.02 0.01 0.02 0.02 0.01 0.01 0.02 0.02 0.03 0.03 0.02 0.02 0.03 0.03 0.03 0.02 0.03 0.02 0.02 0.02 0.02 0.02 0.01 0.01 0.01 0.01 0.02 0.03 0.03 0.02 0.02 0.01 0.01 0.02
0.01 0.01 0.03 0.05 0.03 0.04 0.06 0.05 0.04 0.03 0.02 0.02 0.01 0.01 0.01 0.02 0.02 0.02 0.02 0.02 0.02 0.02 0.02 0.02 0.02 0.02 0.02 0.02 0.02 0.02 0.01 0.01 0.01 0.00 0.00 0.00 0.01 0.02 0.01 0.01 0.01 0.01 0.01
0.01 0.01 0.02 0.05 0.03 0.04 0.05 0.05 0.05 0.04 0.03 0.02 0.01 0.01 0.02 0.02 0.02 0.02 0.02 0.02 0.02 0.02 0.02 0.02 0.02 0.02 0.02 0.02 0.01 0.01 0.01 0.01 0.01 0.00 0.00 0.00 0.00 0.01 0.01 0.01 0.01 0.01 0.02
0.02 0.03 0.04 0.03 0.03 0.04 0.04 0.05 0.05 0.03 0.02 0.02 0.02 0.02 0.02 0.02 0.02 0.02 0.02 0.02 0.02 0.02 0.03 0.02 0.02 0.02 0.01 0.01 0.01 0.01 0.01 0.01 0.01 0.00 0.00 0.00 0.00 0.01 0.01 0.01 0.01 0.02 0.02
0.01 0.02 0.04 0.04 0.03 0.04 0.04 0.05 0.06 0.04 0.02 0.01 0.01 0.02 0.02 0.03 0.04 0.02 0.02 0.02 0.03 0.03 0.03 0.02 0.02 0.02 0.02 0.02 0.02 0.01 0.00 0.00 0.00 0.00 0.00 0.00 0.00 0.01 0.01 0.01 0.02 0.02 0.02
0.02 0.03 0.05 0.05 0.05 0.05 0.04 0.04 0.05 0.04 0.03 0.01 0.01 0.02 0.02 0.04 0.05 0.03 0.02 0.02 0.03 0.03 0.03 0.03 0.02 0.02 0.02 0.02 0.02 0.01 0.00 0.00 0.00 0.00 0.00 0.00 0.01 0.01 0.01 0.02 0.02 0.01 0.01
0.03 0.03 0.05 0.05 0.06 0.06 0.05 0.05 0.05 0.03 0.03 0.02 0.01 0.02 0.02 0.02 0.03 0.03 0.02 0.02 0.03 0.03 0.03 0.03 0.03 0.02 0.03 0.03 0.02 0.01 0.00 0.00 0.00 0.00 0.00 0.00 0.01 0.01 0.01 0.01 0.01 0.01 0.01
0.02 0.02 0.04 0.05 0.06 0.06 0.06 0.06 0.06 0.04 0.02 0.02 0.02 0.02 0.01 0.01 0.02 0.02 0.02 0.02 0.02 0.02 0.03 0.03 0.03 0.03 0.03 0.03 0.01 0.00 0.00 0.00 0.00 0.00 0.00 0.00 0.01 0.02 0.02 0.01 0.01 0.01 0.01
0.01 0.02 0.03 0.05 0.06 0.05 0.06 0.05 0.06 0.05 0.03 0.02 0.02 0.02 0.01 0.01 0.01 0.01 0.01 0.01 0.02 0.02 0.02 0.03 0.04 0.04 0.04 0.04 0.02 0.01 0.00 0.00 0.00 0.01 0.01 0.01 0.01 0.02 0.03 0.03 0.01 0.01 0.01
0.02 0.03 0.04 0.06 0.08 0.06 0.05 0.05 0.07 0.07 0.06 0.03 0.01 0.01 0.01 0.01 0.01 0.01 0.01 0.01 0.02 0.02 0.02 0.03 0.04 0.05 0.05 0.03 0.02 0.02 0.01 0.01 0.01 0.00 0.01 0.01 0.01 0.01 0.01 0.01 0.01 0.01 0.01
0.02 0.03 0.04 0.08 0.11 0.08 0.05 0.04 0.06 0.08 0.08 0.05 0.01 0.01 0.01 0.01 0.01 0.01 0.01 0.01 0.02 0.02 0.03 0.04 0.05 0.06 0.05 0.02 0.01 0.01 0.01 0.01 0.01 0.00 0.00 0.00 0.01 0.01 0.01 0.01 0.01 0.01 0.01
0.02 0.03 0.03 0.06 0.12 0.11 0.08 0.05 0.04 0.06 0.08 0.06 0.03 0.02 0.01 0.01 0.01 0.01 0.01 0.01 0.02 0.02 0.03 0.04 0.06 0.06 0.06 0.03 0.01 0.00 0.01 0.01 0.00 0.00 0.00 0.00 0.01 0.01 0.01 0.01 0.01 0.01 0.01
0.02 0.02 0.03 0.04 0.09 0.10 0.08 0.08 0.06 0.05 0.06 0.06 0.04 0.03 0.02 0.02 0.01 0.01 0.02 0.01 0.01 0.01 0.02 0.04 0.05 0.06 0.05 0.03 0.01 0.01 0.01 0.00 0.00 0.00 0.00 0.00 0.01 0.01 0.01 0.01 0.01 0.01 0.01
0.01 0.01 0.02 0.02 0.04 0.06 0.07 0.09 0.09 0.08 0.06 0.05 0.04 0.04 0.03 0.02 0.02 0.02 0.01 0.02 0.02 0.02 0.03 0.04 0.05 0.06 0.05 0.03 0.02 0.01 0.01 0.00 0.00 0.00 0.00 0.00 0.00 0.01 0.01 0.01 0.01 0.01 0.01
0.01 0.02 0.02 0.02 0.02 0.03 0.04 0.05 0.07 0.09 0.08 0.07 0.04 0.04 0.04 0.03 0.03 0.02 0.02 0.02 0.03 0.03 0.03 0.04 0.04 0.05 0.05 0.04 0.04 0.03 0.02 0.01 0.00 0.00 0.00 0.00 0.00 0.00 0.01 0.01 0.02 0.02 0.02
0.01 0.01 0.02 0.02 0.02 0.03 0.03 0.04 0.05 0.07 0.08 0.08 0.06 0.03 0.04 0.04 0.03 0.03 0.03 0.02 0.03 0.03 0.04 0.04 0.04 0.04 0.05 0.06 0.05 0.06 0.04 0.03 0.01 0.00 0.00 0.00 0.00 0.00 0.00 0.01 0.01 0.02 0.02
0.01 0.01 0.01 0.02 0.02 0.03 0.03 0.04 0.05 0.06 0.08 0.08 0.08 0.04 0.04 0.04 0.03 0.04 0.04 0.04 0.04 0.04 0.04 0.04 0.04 0.04 0.04 0.05 0.06 0.05 0.04 0.04 0.02 0.01 0.00 0.00 0.00 0.00 0.00 0.00 0.01 0.01 0.02
0.02 0.01 0.01 0.01 0.02 0.02 0.03 0.04 0.05 0.06 0.08 0.08 0.09 0.07 0.04 0.04 0.04 0.04 0.05 0.05 0.05 0.06 0.06 0.05 0.04 0.04 0.04 0.04 0.05 0.04 0.04 0.03 0.02 0.01 0.01 0.00 0.00 0.00 0.00 0.00 0.00 0.01 0.01
0.03 0.02 0.02 0.02 0.02 0.03 0.04 0.05 0.06 0.06 0.06 0.07 0.09 0.09 0.05 0.04 0.04 0.04 0.04 0.05 0.07 0.08 0.08 0.06 0.05 0.04 0.05 0.05 0.04 0.04 0.03 0.02 0.02 0.01 0.00 0.00 0.00 0.00 0.00 0.00 0.00 0.00 0.01
0.04 0.03 0.02 0.02 0.02 0.03 0.04 0.04 0.06 0.06 0.06 0.06 0.09 0.14 0.10 0.05 0.05 0.04 0.04 0.04 0.06 0.09 0.11 0.09 0.07 0.05 0.05 0.06 0.05 0.05 0.03 0.02 0.01 0.01 0.00 0.00 0.00 0.00 0.00 0.00 0.00 0.00 0.00
0.04 0.04 0.03 0.02 0.02 0.03 0.04 0.04 0.05 0.06 0.08 0.08 0.08 0.14 0.18 0.10 0.06 0.05 0.03 0.03 0.03 0.06 0.11 0.12 0.09 0.08 0.07 0.06 0.05 0.04 0.04 0.03 0.02 0.01 0.01 0.01 0.00 0.00 0.00 0.01 0.00 0.00 0.00
0.05 0.04 0.04 0.03 0.03 0.03 0.05 0.06 0.07 0.08 0.09 0.09 0.07 0.08 0.20 0.20 0.09 0.05 0.04 0.03 0.02 0.02 0.06 0.09 0.10 0.08 0.08 0.07 0.06 0.05 0.04 0.03 0.02 0.02 0.01 0.01 0.01 0.01 0.01 0.01 0.01 0.01 0.01
0.03 0.04 0.04 0.04 0.03 0.04 0.05 0.07 0.06 0.06 0.08 0.08 0.07 0.07 0.14 0.29 0.20 0.07 0.04 0.03 0.02 0.02 0.04 0.05 0.06 0.07 0.07 0.07 0.07 0.07 0.05 0.04 0.03 0.02 0.02 0.01 0.01 0.02 0.02 0.01 0.01 0.01 0.01
0.03 0.03 0.05 0.06 0.05 0.03 0.03 0.04 0.05 0.04 0.04 0.05 0.06 0.06 0.08 0.17 0.29 0.19 0.07 0.04 0.03 0.03 0.03 0.04 0.04 0.04 0.05 0.04 0.05 0.06 0.05 0.04 0.03 0.03 0.02 0.01 0.01 0.01 0.02 0.02 0.01 0.01 0.01
0.03 0.03 0.03 0.06 0.08 0.06 0.04 0.03 0.03 0.03 0.02 0.02 0.03 0.04 0.05 0.08 0.16 0.23 0.17 0.07 0.04 0.04 0.04 0.04 0.04 0.05 0.05 0.05 0.05 0.04 0.04 0.03 0.03 0.03 0.03 0.02 0.01 0.01 0.01 0.02 0.02 0.02 0.02
MSLP
1018.58 1018.32 1018.20 1018.23 1018.37 1018.56 1018.75 1018.88 1018.93 1018.88 1018.75 1018.57 1018.39 1018.26 1018.20 1018.22 1018.31 1018.43 1018.56 1018.65 1018.70 1018.69 1018.64 1018.56 1018.50 1018.46 1018.46 1018.48 1018.52 1018.56 1018.57 1018.55 1018.49 1018.40 1018.29 1018.18 1018.07 1017.98 1017.91 1017.85 1017.81 1017.78 1017.76
1018.69 1018.47 1018.39 1018.43 1018.58 1018.78 1018.97 1019.11 1019.16 1019.12 1019.01 1018.87 1018.73 1018.64 1018.62 1018.68 1018.79 1018.93 1019.06 1019.16 1019.19 1019.18 1019.11 1019.03 1018.95 1018.89 1018.86 1018.85 1018.86 1018.88 1018.87 1018.85 1018.80 1018.73 1018.64 1018.55 1018.46 1018.37 1018.28 1018.20 1018.13 1018.07 1018.03
1018.75 1018.58 1018.54 1018.62 1018.79 1019.00 1019.21 1019.36 1019.44 1019.43 1019.35 1019.24 1019.14 1019.08 1019.09 1019.15 1019.26 1019.39 1019.51 1019.59 1019.61 1019.58 1019.51 1019.43 1019.34 1019.27 1019.22 1019.20 1019.19 1019.18 1019.16 1019.14 1019.10 1019.05 1018.99 1018.93 1018.85 1018.77 1018.68 1018.59 1018.49 1018.41 1018.34
1018.79 1018.69 1018.70 1018.83 1019.03 1019.27 1019.50 1019.67 1019.77 1019.79 1019.75 1019.67 1019.60 1019.56 1019.56 1019.62 1019.71 1019.80 1019.89 1019.94 1019.94 1019.90 1019.84 1019.75 1019.67 1019.60 1019.55 1019.51 1019.49 1019.46 1019.44 1019.41 1019.39 1019.35 1019.32 1019.28 1019.23 1019.16 1019.07 1018.97 1018.86 1018.75 1018.67
1018.87 1018.85 1018.93 1019.10 1019.34 1019.61 1019.85 1020.04 1020.16 1020.20 1020.18 1020.13 1020.07 1020.03 1020.03 1020.06 1020.11 1020.16 1020.21 1020.22 1020.21 1020.16 1020.10 1020.03 1019.96 1019.90 1019.85 1019.81 1019.77 1019.74 1019.70 1019.67 1019.65 1019.63 1019.61 1019.59 1019.55 1019.50 1019.41 1019.31 1019.19 1019.07 1018.96
1019.05 1019.11 1019.26 1019.48 1019.75 1020.03 1020.27 1020.46 1020.57 1020.62 1020.60 1020.56 1020.51 1020.47 1020.45 1020.45 1020.47 1020.49 1020.49 1020.48 1020.44 1020.39 1020.33 1020.27 1020.22 1020.17 1020.13 1020.08 1020.04 1020.00 1019.95 1019.91 1019.89 1019.87 1019.85 1019.83 1019.80 1019.75 1019.67 1019.56 1019.44 1019.32 1019.21
1019.38 1019.52 1019.72 1019.97 1020.25 1020.51 1020.73 1020.89 1020.98 1021.00 1020.98 1020.93 1020.88 1020.84 1020.82 1020.81 1020.81 1020.80 1020.78 1020.74 1020.68 1020.62 1020.56 1020.50 1020.46 1020.42 1020.38 1020.34 1020.29 1020.24 1020.19 1020.14 1020.10 1020.07 1020.04 1020.01 1019.97 1019.91 1019.83 1019.72 1019.61 1019.49 1019.39
1019.88 1020.06 1020.30 1020.55 1020.81 1021.03 1021.20 1021.30 1021.34 1021.32 1021.28 1021.23 1021.18 1021.15 1021.14 1021.13 1021.13 1021.11 1021.07 1021.01 1020.94 1020.86 1020.79 1020.73 1020.68 1020.63 1020.59 1020.55 1020.50 1020.45 1020.39 1020.33 1020.27 1020.23 1020.18 1020.13 1020.06 1019.99 1019.89 1019.79 1019.68 1019.58 1019.49
1020.54 1020.74 1020.97 1021.19 1021.40 1021.55 1021.63 1021.66 1021.63 1021.57 1021.49 1021.43 1021.40 1021.39 1021.39 1021.41 1021.42 1021.40 1021.36 1021.29 1021.21 1021.11 1021.02 1020.93 1020.86 1020.81 1020.75 1020.71 1020.66 1020.60 1020.54 1020.48 1020.41 1020.35 1020.27 1020.19 1020.10 1019.99 1019.88 1019.76 1019.66 1019.57 1019.51
1021.33 1021.51 1021.69 1021.86 1021.97 1022.03 1022.02 1021.96 1021.86 1021.75 1021.65 1021.58 1021.56 1021.57 1021.61 1021.65 1021.68 1021.68 1021.64 1021.56 1021.46 1021.34 1021.21 1021.10 1021.00 1020.92 1020.85 1020.79 1020.74 1020.68 1020.63 1020.56 1020.49 1020.41 1020.32 1020.20 1020.08 1019.94 1019.80 1019.67 1019.57 1019.49 1019.45
1022.20 1022.32 1022.43 1022.50 1022.52 1022.47 1022.36 1022.21 1022.05 1021.89 1021.78 1021.71 1021.70 1021.74 1021.80 1021.87 1021.92 1021.92 1021.88 1021.80 1021.67 1021.52 1021.37 1021.21 1021.08 1020.96 1020.87 1020.79 1020.73 1020.67 1020.62 1020.57 1020.50 1020.41 1020.30 1020.16 1020.00 1019.83 1019.66 1019.51 1019.40 1019.33 1019.31
1023.11 1023.15 1023.16 1023.12 1023.02 1022.87 1022.67 1022.46 1022.24 1022.06 1021.94 1021.88 1021.89 1021.94 1022.02 1022.09 1022.14 1022.14 1022.09 1021.99 1021.84 1021.67 1021.47 1021.28 1021.10 1020.95 1020.82 1020.71 1020.63 1020.57 1020.52 1020.46 1020.39 1020.30 1020.18 1020.03 1019.85 1019.66 1019.46 1019.29 1019.16 1019.08 1019.06
1024.01 1023.95 1023.85 1023.70 1023.51 1023.26 1023.00 1022.74 1022.50 1022.32 1022.21 1022.16 1022.17 1022.23 1022.29 1022.35 1022.38 1022.36 1022.29 1022.16 1021.99 1021.79 1021.56 1021.34 1021.11 1020.91 1020.73 1020.59 1020.47 1020.38 1020.30 1020.23 1020.16 1020.07 1019.95 1019.79 1019.60 1019.39 1019.18 1018.99 1018.84 1018.75 1018.71
1024.88 1024.72 1024.52 1024.27 1023.98 1023.68 1023.38 1023.10 1022.88 1022.72 1022.62 1022.59 1022.61 1022.64 1022.68 1022.70 1022.69 1022.63 1022.52 1022.36 1022.16 1021.94 1021.69 1021.43 1021.16 1020.90 1020.66 1020.45 1020.26 1020.11 1019.99 1019.89 1019.80 1019.69 1019.57 1019.41 1019.22 1019.01 1018.80 1018.59 1018.42 1018.31 1018.25
1025.71 1025.46 1025.17 1024.84 1024.49 1024.15 1023.84 1023.59 1023.40 1023.28 1023.22 1023.21 1023.22 1023.23 1023.22 1023.18 1023.11 1022.99 1022.83 1022.64 1022.42 1022.17 1021.90 1021.60 1021.29 1020.97 1020.65 1020.34 1020.07 1019.82 1019.62 1019.45 1019.31 1019.18 1019.05 1018.90 1018.72 1018.52 1018.31 1018.10 1017.92 1017.78 1017.70
1026.49 1026.18 1025.82 1025.43 1025.05 1024.70 1024.42 1024.21 1024.08 1024.02 1024.01 1024.02 1024.02 1024.00 1023.93 1023.82 1023.67 1023.48 1023.27 1023.05 1022.81 1022.54 1022.25 1021.93 1021.57 1021.18 1020.76 1020.34 1019.93 1019.56 1019.24 1018.97 1018.75 1018.58 1018.42 1018.27 1018.11 1017.93 1017.74 1017.53 1017.34 1017.18 1017.06
1027.24 1026.89 1026.48 1026.07 1025.67 1025.34 1025.10 1024.95 1024.89 1024.90 1024.94 1024.97 1024.97 1024.91 1024.79 1024.61 1024.38 1024.13 1023.87 1023.62 1023.35 1023.08 1022.78 1022.43 1022.02 1021.55 1021.03 1020.48 1019.93 1019.40 1018.93 1018.54 1018.22 1017.97 1017.77 1017.61 1017.45 1017.29 1017.11 1016.92 1016.72 1016.53 1016.37
1027.96 1027.60 1027.18 1026.75 1026.36 1026.06 1025.86 1025.78 1025.79 1025.87 1025.95 1026.02 1026.01 1025.92 1025.75 1025.51 1025.22 1024.92 1024.62 1024.33 1024.06 1023.78 1023.46 1023.09 1022.64 1022.10 1021.47 1020.79 1020.09 1019.41 1018.78 1018.23 1017.79 1017.44 1017.18 1016.99 1016.82 1016.66 1016.49 1016.31 1016.10 1015.88 1015.68
1028.68 1028.31 1027.90 1027.47 1027.11 1026.84 1026.69 1026.66 1026.73 1026.86 1026.99 1027.07 1027.07 1026.97 1026.76 1026.47 1026.14 1025.80 1025.47 1025.16 1024.88 1024.59 1024.27 1023.88 1023.39 1022.79 1022.08 1021.29 1020.46 1019.62 1018.84 1018.15 1017.56 1017.11 1016.76 1016.50 1016.30 1016.12 1015.94 1015.74 1015.52 1015.27 1015.02
1029.39 1029.05 1028.65 1028.24 1027.90 1027.66 1027.54 1027.55 1027.67 1027.83 1027.99 1028.08 1028.08 1027.97 1027.75 1027.44 1027.08 1026.71 1026.37 1026.05 1025.76 1025.47 1025.15 1024.75 1024.24 1023.60 1022.84 1021.97 1021.03 1020.08 1019.17 1018.33 1017.62 1017.03 1016.58 1016.22 1015.95 1015.72 1015.50 1015.27 1015.01 1014.72 1014.42
1030.11 1029.79 1029.41 1029.03 1028.71 1028.50 1028.41 1028.44 1028.56 1028.74 1028.90 1029.00 1029.00 1028.89 1028.66 1028.35 1027.99 1027.61 1027.26 1026.94 1026.64 1026.35 1026.03 1025.63 1025.12 1024.47 1023.68 1022.78 1021.79 1020.76 1019.75 1018.81 1017.97 1017.26 1016.67 1016.20 1015.82 1015.49 1015.20 1014.90 1014.59 1014.25 1013.89
1030.80 1030.52 1030.18 1029.83 1029.54 1029.35 1029.27 1029.30 1029.41 1029.58 1029.73 1029.82 1029.81 1029.70 1029.47 1029.17 1028.82 1028.45 1028.09 1027.77 1027.47 1027.18 1026.85 1026.46 1025.96 1025.33 1024.56 1023.67 1022.67 1021.63 1020.57 1019.55 1018.60 1017.77 1017.04 1016.43 1015.91 1015.45 1015.04 1014.65 1014.26 1013.86 1013.44
1031.46 1031.22 1030.92 1030.62 1030.37 1030.19 1030.11 1030.13 1030.22 1030.35 1030.47 1030.53 1030.51 1030.40 1030.19 1029.89 1029.56 1029.20 1028.85 1028.52 1028.21 1027.90 1027.57 1027.19 1026.71 1026.12 1025.40 1024.56 1023.62 1022.59 1021.53 1020.47 1019.45 1018.50 1017.64 1016.87 1016.18 1015.57 1015.02 1014.51 1014.02 1013.54 1013.07
1032.03 1031.85 1031.61 1031.37 1031.16 1031.01 1030.94 1030.94 1031.00 1031.08 1031.15 1031.18 1031.14 1031.01 1030.80 1030.53 1030.21 1029.86 1029.51 1029.17 1028.84 1028.51 1028.17 1027.79 1027.34 1026.80 1026.15 1025.39 1024.52 1023.56 1022.54 1021.47 1020.40 1019.36 1018.37 1017.44 1016.59 1015.81 1015.10 1014.45 1013.85 1013.29 1012.75
1032.50 1032.38 1032.22 1032.05 1031.90 1031.80 1031.74 1031.73 1031.75 1031.78 1031.80 1031.78 1031.71 1031.57 1031.36 1031.10 1030.78 1030.44 1030.08 1029.72 1029.36 1029.01 1028.64 1028.25 1027.83 1027.33 1026.76 1026.09 1025.32 1024.45 1023.48 1022.44 1021.35 1020.24 1019.14 1018.07 1017.06 1016.11 1015.24 1014.45 1013.73 1013.08 1012.48
1032.85 1032.79 1032.71 1032.63 1032.57 1032.52 1032.49 1032.48 1032.47 1032.46 1032.42 1032.35 1032.24 1032.08 1031.87 1031.61 1031.30 1030.96 1030.59 1030.20 1029.80 1029.40 1029.00 1028.59 1028.17 1027.71 1027.20 1026.62 1025.95 1025.17 1024.28 1023.29 1022.21 1021.06 1019.87 1018.69 1017.53 1016.44 1015.42 1014.49 1013.66 1012.92 1012.25
Thickness
5736 5738 5739 5739 5739 5739 5739 5739 5739 5738 5738 5737 5736 5736 5735 5734 5733 5733 5732 5732 5732 5731 5731 5731 5730 5729 5729 5728 5727 5726 5725 5724 5723 5722 5721 5720 5719 5718 5716 5715 5714 5712 5711
5737 5737 5737 5737 5736 5736 5736 5736 5736 5735 5735 5734 5734 5733 5732 5731 5731 5730 5730 5729 5728 5728 5728 5727 5727 5726 5725 5724 5723 5723 5722 5720 5719 5718 5717 5716 5715 5714 5713 5712 5711 5709 5708
5735 5735 5735 5734 5734 5733 5733 5733 5733 5732 5732 5731 5731 5730 5729 5729 5728 5727 5727 5726 5726 5725 5725 5724 5723 5722 5722 5721 5720 5719 5718 5717 5715 5714 5713 5712 5711 5711 5710 5709 5707 5706 5705
5733 5732 5732 5731 5731 5730 5730 5729 5729 5729 5728 5728 5727 5727 5726 5725 5724 5724 5723 5723 5722 5722 5721 5720 5719 5719 5718 5717 5716 5715 5714 5713 5711 5710 5709 5708 5708 5707 5706 5705 5704 5702 5701
5728 5729 5728 5728 5727 5727 5726 5726 5725 5725 5724 5724 5723 5723 5723 5722 5721 5721 5720 5719 5719 5718 5717 5716 5716 5715 5714 5713 5712 5711 5710 5708 5707 5706 5705 5704 5704 5703 5702 5701 5700 5698 5697
5724 5724 5724 5724 5723 5723 5723 5722 5722 5721 5721 5720 5720 5719 5719 5718 5718 5717 5716 5715 5715 5714 5714 5713 5712 5711 5710 5709 5708 5707 5705 5704 5703 5702 5702 5701 5700 5699 5698 5697 5696 5694 5693
5718 5719 5720 5720 5719 5719 5719 5718 5718 5717 5717 5716 5716 5715 5715 5715 5714 5713 5712 5711 5711 5710 5710 5709 5708 5707 5706 5705 5704 5703 5701 5700 5699 5698 5698 5697 5696 5696 5694 5693 5692 5691 5689
5713 5714 5714 5715 5715 5715 5714 5714 5714 5713 5713 5712 5712 5711 5711 5710 5710 5709 5708 5707 5707 5706 5706 5705 5704 5703 5702 5701 5700 5699 5697 5696 5695 5694 5693 5693 5692 5692 5690 5689 5688 5687 5685
5707 5708 5708 5709 5709 5709 5709 5709 5709 5708 5708 5708 5707 5707 5706 5706 5705 5705 5704 5704 5703 5702 5702 5701 5700 5699 5698 5697 5695 5694 5693 5692 5691 5690 5689 5689 5688 5687 5686 5685 5684 5682 5681
5699 5701 5702 5702 5703 5703 5703 5703 5703 5703 5703 5703 5702 5702 5701 5700 5700 5700 5700 5699 5699 5699 5698 5697 5696 5695 5693 5692 5690 5689 5688 5687 5686 5685 5685 5684 5684 5683 5682 5681 5679 5678 5677
5691 5693 5694 5695 5696 5696 5696 5696 5696 5696 5697 5696 5696 5696 5696 5695 5695 5695 5694 5694 5694 5694 5693 5692 5692 5691 5689 5687 5686 5684 5683 5682 5681 5680 5680 5679 5679 5678 5678 5677 5675 5674 5672
5682 5684 5686 5687 5688 5689 5689 5689 5690 5690 5690 5690 5690 5690 5689 5689 5689 5689 5689 5689 5689 5689 5688 5687 5687 5686 5684 5682 5681 5679 5678 5677 5676 5676 5675 5675 5674 5674 5673 5672 5671 5669 5668
5675 5677 5679 5679 5680 5681 5682 5682 5683 5683 5683 5684 5684 5683 5683 5682 5682 5683 5683 5683 5683 5683 5682 5682 5681 5680 5679 5678 5676 5675 5674 5673 5672 5671 5670 5670 5669 5669 5668 5667 5665 5664 5663
5666 5669 5672 5673 5673 5674 5675 5675 5676 5677 5677 5677 5677 5677 5676 5676 5676 5676 5677 5677 5677 5677 5676 5676 5675 5674 5673 5672 5670 5669 5669 5668 5667 5666 5665 5664 5664 5663 5662 5661 5660 5659 5658
5658 5661 5663 5665 5666 5667 5668 5668 5669 5669 5670 5670 5670 5670 5670 5670 5669 5669 5670 5670 5671 5671 5670 5670 5669 5668 5667 5665 5664 5663 5662 5662 5661 5660 5659 5659 5658 5657 5657 5656 5655 5654 5653
5650 5652 5655 5657 5658 5659 5660 5661 5661 5662 5663 5663 5663 5663 5663 5663 5663 5663 5663 5663 5664 5664 5664 5663 5663 5661 5660 5659 5658 5657 5656 5655 5654 5654 5653 5652 5651 5651 5650 5650 5649 5648 5647
5641 5644 5646 5649 5650 5651 5652 5654 5654 5655 5655 5655 5656 5656 5656 5656 5656 5656 5656 5656 5657 5657 5657 5656 5655 5654 5652 5651 5650 5649 5648 5647 5647 5646 5646 5645 5645 5644 5643 5643 5642 5642 5641
5633 5635 5637 5640 5642 5644 5645 5646 5647 5648 5648 5648 5649 5649 5649 5649 5649 5649 5649 5649 5650 5650 5649 5648 5647 5645 5643 5642 5641 5640 5640 5639 5639 5638 5638 5638 5637 5637 5636 5636 5635 5634 5634
5624 5627 5629 5632 5634 5636 5638 5639 5640 5641 5641 5641 5642 5643 5643 5643 5643 5643 5642 5642 5643 5642 5641 5640 5638 5637 5634 5633 5632 5631 5631 5631 5631 5631 5630 5629 5629 5629 5628 5628 5627 5626 5626
5616 5618 5621 5623 5626 5628 5629 5630 5632 5633 5633 5634 5635 5636 5637 5637 5636 5636 5635 5635 5635 5634 5633 5632 5630 5628 5626 5624 5623 5622 5621 5622 5622 5622 5622 5621 5621 5620 5620 5619 5619 5618 5617
5607 5609 5612 5615 5616 5618 5620 5621 5622 5624 5625 5626 5627 5628 5629 5630 5629 5629 5628 5627 5627 5626 5625 5624 5621 5619 5616 5615 5612 5611 5612 5613 5613 5613 5613 5613 5612 5612 5611 5610 5610 5609 5609
5597 5599 5602 5604 5607 5609 5611 5612 5613 5615 5616 5617 5618 5619 5621 5622 5622 5622 5621 5619 5620 5619 5616 5615 5613 5609 5607 5605 5603 5601 5601 5602 5603 5604 5603 5603 5603 5603 5602 5601 5601 5600 5600
5586 5589 5593 5594 5597 5599 5601 5603 5604 5605 5607 5608 5610 5611 5613 5614 5614 5614 5613 5612 5611 5610 5609 5607 5605 5602 5599 5596 5596 5594 5592 5593 5593 5594 5594 5594 5594 5593 5593 5593 5592 5591 5591
5577 5579 5582 5585 5587 5589 5591 5593 5594 5595 5598 5600 5600 5602 5603 5604 5605 5606 5605 5603 5602 5602 5600 5599 5597 5596 5593 5590 5587 5587 5587 5587 5584 5584 5583 5584 5584 5584 5584 5584 5583 5583 5582
5567 5569 5572 5575 5577 5580 5582 5583 5584 5585 5587 5589 5590 5591 5593 5595 5596 5596 5596 5595 5594 5594 5592 5591 5589 5588 5587 5585 5582 5579 5577 5576 5576 5575 5575 5574 5573 5575 5575 5575 5575 5574 5574
5558 5560 5562 5565 5567 5569 5570 5572 5573 5575 5576 5578 5579 5581 5583 5585 5586 5587 5587 5586 5586 5585 5585 5584 5583 5581 5580 5578 5576 5574 5572 5571 5569 5567 5567 5566 5565 5566 5566 5566 5566 5566 5565